GW0658 Weather Reports


Display with metric or nautical units.
time (UTC)temp
F
wind
direction
speed
MPH
gust
MPH
rain 1hr
in
rain 24hr
in
rain mn
in
humidity
%
barometer
mb
20220525031017 70 319 0.0 1.0 0.00 0.00 0.00 35 1015.8
20220525030518 71 0 0.0 0.0 0.00 0.00 0.00 34 1015.9
20220525030021 71 0 0.0 0.0 0.00 0.00 0.00 34 1015.8
20220525025518 72 0 0.0 0.0 0.00 0.00 0.00 34 1015.8
20220525025021 72 0 0.0 0.0 0.00 0.00 0.00 33 1015.7
20220525024519 73 0 0.0 0.0 0.00 0.00 0.00 32 1015.8
20220525024015 73 0 0.0 0.0 0.00 0.00 0.00 31 1015.8
20220525023522 73 0 0.0 0.0 0.00 0.00 0.00 30 1015.8
20220525023020 74 0 0.0 0.0 0.00 0.00 0.00 29 1015.7
20220525022518 74 0 0.0 0.0 0.00 0.00 0.00 29 1015.8
20220525022021 74 0 0.0 0.0 0.00 0.00 0.00 29 1015.8
20220525021522 75 0 0.0 0.0 0.00 0.00 0.00 29 1015.8
20220525021018 75 0 0.0 2.0 0.00 0.00 0.00 27 1015.7
20220525020517 75 0 0.0 2.0 0.00 0.00 0.00 26 1015.8
20220525020031 76 0 0.0 0.0 0.00 0.00 0.00 27 1015.8
20220525015519 76 0 0.0 3.0 0.00 0.00 0.00 27 1015.7
20220525015018 76 0 0.0 3.0 0.00 0.00 0.00 27 1015.8
20220525014535 76 0 0.0 3.0 0.00 0.00 0.00 25 1015.8
20220525014025 76 0 0.0 2.0 0.00 0.00 0.00 26 1015.8
20220525013518 77 0 0.0 2.0 0.00 0.00 0.00 25 1015.7
20220525013022 76 0 0.0 4.0 0.00 0.00 0.00 25 1015.8
20220525012518 76 0 0.0 4.0 0.00 0.00 0.00 24 1015.8
20220525012018 76 198 2.0 4.0 0.00 0.00 0.00 24 1015.8
20220525011518 76 251 0.0 3.0 0.00 0.00 0.00 27 1015.8
20220525011017 76 251 0.0 3.0 0.00 0.00 0.00 25 1015.8
20220525010517 76 0 1.0 3.0 0.00 0.00 0.00 24 1015.8
20220525010016 76 20 1.0 3.0 0.00 0.00 0.00 25 1015.8
20220525005519 76 250 0.0 2.0 0.00 0.00 0.00 25 1015.9
20220525005015 76 172 0.0 3.0 0.00 0.00 0.00 27 1015.8
20220525004526 77 282 0.0 5.0 0.00 0.00 0.00 25 1015.8
20220525004021 77 246 1.0 5.0 0.00 0.00 0.00 23 1015.9
20220525003518 77 243 1.0 4.0 0.00 0.00 0.00 24 1015.8
20220525003030 78 242 1.0 4.0 0.00 0.00 0.00 26 1015.8
20220525002524 78 0 0.0 5.0 0.00 0.00 0.00 24 1015.8
20220525002018 79 0 0.0 5.0 0.00 0.00 0.00 27 1015.8
20220525001518 78 219 1.0 5.0 0.00 0.00 0.00 23 1015.7
20220525001021 79 225 1.0 6.0 0.00 0.00 0.00 23 1015.8
20220525000517 79 232 1.0 6.0 0.00 0.00 0.00 24 1015.8
20220525000020 79 196 2.0 6.0 0.00 0.00 0.00 25 1015.8
20220524235515 78 0 0.0 6.0 0.00 0.00 0.00 25 1015.8
20220524235015 78 211 1.0 3.0 0.00 0.00 0.00 25 1015.9
20220524234522 78 0 0.0 8.0 0.00 0.00 0.00 25 1015.9
20220524234018 78 255 3.0 8.0 0.00 0.00 0.00 26 1015.8
20220524233518 78 225 2.0 7.0 0.00 0.00 0.00 25 1015.8
20220524233018 78 266 1.0 6.0 0.00 0.00 0.00 26 1015.8
20220524232518 77 213 3.0 6.0 0.00 0.00 0.00 24 1015.8
20220524232021 78 200 3.0 6.0 0.00 0.00 0.00 24 1015.8
20220524231519 78 224 3.0 6.0 0.00 0.00 0.00 22 1016.0
20220524231018 78 206 2.0 6.0 0.00 0.00 0.00 26 1015.9
20220524230519 78 165 1.0 7.0 0.00 0.00 0.00 23 1015.9
20220524230019 78 182 2.0 7.0 0.00 0.00 0.00 26 1016.0
20220524225518 78 244 2.0 6.0 0.00 0.00 0.00 26 1016.0
20220524225019 78 0 2.0 6.0 0.00 0.00 0.00 24 1016.0
20220524224519 78 255 2.0 7.0 0.00 0.00 0.00 30 1016.0
20220524224018 78 186 3.0 7.0 0.00 0.00 0.00 24 1016.0
20220524223518 78 190 2.0 6.0 0.00 0.00 0.00 24 1016.0
20220524223022 79 261 3.0 7.0 0.00 0.00 0.00 26 1016.0
20220524222520 79 209 2.0 7.0 0.00 0.00 0.00 25 1016.0
20220524222018 79 213 3.0 7.0 0.00 0.00 0.00 25 1016.1
20220524221526 80 188 1.0 6.0 0.00 0.00 0.00 26 1016.1
20220524221018 80 277 1.0 5.0 0.00 0.00 0.00 26 1016.2
20220524220518 80 205 2.0 6.0 0.00 0.00 0.00 27 1016.2
20220524220021 80 258 1.0 7.0 0.00 0.00 0.00 28 1016.2
20220524215522 80 223 4.0 7.0 0.00 0.00 0.00 23 1016.3
20220524215015 80 250 2.0 6.0 0.00 0.00 0.00 26 1016.4
20220524214519 80 263 1.0 6.0 0.00 0.00 0.00 29 1016.4
20220524214020 80 231 1.0 5.0 0.00 0.00 0.00 29 1016.3
20220524213526 80 213 1.0 6.0 0.00 0.00 0.00 24 1016.2
20220524213033 80 266 1.0 6.0 0.00 0.00 0.00 26 1016.2
20220524212519 80 188 3.0 6.0 0.00 0.00 0.00 24 1016.2
20220524212021 80 223 1.0 7.0 0.00 0.00 0.00 26 1016.2
20220524211533 80 219 3.0 7.0 0.00 0.00 0.00 27 1016.3
20220524211019 80 205 2.0 7.0 0.00 0.00 0.00 26 1016.2
20220524210524 80 252 2.0 7.0 0.00 0.00 0.00 27 1016.2
20220524210027 80 209 2.0 7.0 0.00 0.00 0.00 27 1016.2
20220524205517 80 217 1.0 4.0 0.00 0.00 0.00 25 1016.3
20220524205018 80 223 1.0 4.0 0.00 0.00 0.00 28 1016.2
20220524204533 81 254 1.0 4.0 0.00 0.00 0.00 24 1016.4
20220524204019 80 298 1.0 3.0 0.00 0.00 0.00 28 1016.5
20220524203525 80 241 1.0 4.0 0.00 0.00 0.00 28 1016.5
20220524203029 80 245 1.0 5.0 0.00 0.00 0.00 27 1016.5
20220524202523 80 244 2.0 5.0 0.00 0.00 0.00 28 1016.6
20220524202022 81 220 1.0 5.0 0.00 0.00 0.00 27 1016.5
20220524201533 80 0 1.0 5.0 0.00 0.00 0.00 29 1016.3
20220524201021 80 262 1.0 5.0 0.00 0.00 0.00 28 1016.4
20220524200517 79 264 2.0 5.0 0.00 0.00 0.00 29 1016.5
20220524200028 79 244 1.0 8.0 0.00 0.00 0.00 27 1016.4
20220524195521 79 217 3.0 9.0 0.00 0.00 0.00 25 1016.4
20220524195020 79 259 3.0 9.0 0.00 0.00 0.00 29 1016.5
20220524194537 80 0 1.0 5.0 0.00 0.00 0.00 30 1016.4
20220524194018 80 219 2.0 4.0 0.00 0.00 0.00 29 1016.5
20220524193525 79 0 1.0 7.0 0.00 0.00 0.00 31 1016.5
20220524193022 79 270 1.0 7.0 0.00 0.00 0.00 35 1016.4
20220524192523 79 221 2.0 6.0 0.00 0.00 0.00 31 1016.4
20220524192019 79 259 2.0 6.0 0.00 0.00 0.00 29 1016.4
20220524191539 80 252 1.0 5.0 0.00 0.00 0.00 29 1016.4
20220524191020 80 209 1.0 4.0 0.00 0.00 0.00 29 1016.4
20220524190518 80 239 1.0 4.0 0.00 0.00 0.00 30 1016.5
20220524190047 80 323 1.0 4.0 0.00 0.00 0.00 27 1016.5
20220524185518 80 272 0.0 5.0 0.00 0.00 0.00 29 1016.4
20220524185020 79 0 1.0 5.0 0.00 0.00 0.00 26 1016.6
20220524184536 79 0 1.0 3.0 0.00 0.00 0.00 25 1016.5
20220524184020 79 258 0.0 3.0 0.00 0.00 0.00 25 1016.5
20220524183518 79 343 1.0 3.0 0.00 0.00 0.00 27 1016.5
20220524183030 79 0 0.0 3.0 0.00 0.00 0.00 30 1016.4
20220524182522 78 270 1.0 3.0 0.00 0.00 0.00 26 1016.5
20220524182024 78 211 1.0 4.0 0.00 0.00 0.00 28 1016.4
20220524181531 78 314 1.0 4.0 0.00 0.00 0.00 27 1016.3
20220524181021 78 223 1.0 3.0 0.00 0.00 0.00 29 1016.5
20220524180518 78 0 0.0 3.0 0.00 0.00 0.00 28 1016.5
20220524180025 77 311 1.0 3.0 0.00 0.00 0.00 27 1016.4
20220524175520 77 268 1.0 3.0 0.00 0.00 0.00 29 1016.3
20220524175021 77 215 1.0 3.0 0.00 0.00 0.00 28 1016.5
20220524174522 77 0 0.0 3.0 0.00 0.00 0.00 34 1016.3
20220524174022 76 339 1.0 3.0 0.00 0.00 0.00 30 1016.4
20220524173520 76 0 1.0 4.0 0.00 0.00 0.00 33 1016.4
20220524173034 76 317 1.0 4.0 0.00 0.00 0.00 32 1016.3
20220524172518 76 227 1.0 2.0 0.00 0.00 0.00 29 1016.3
20220524172019 76 234 0.0 4.0 0.00 0.00 0.00 28 1016.3
20220524171527 75 313 1.0 4.0 0.00 0.00 0.00 31 1016.2
20220524171018 75 352 1.0 4.0 0.00 0.00 0.00 37 1016.3
20220524170521 75 360 1.0 4.0 0.00 0.00 0.00 27 1016.2
20220524170033 75 239 0.0 3.0 0.00 0.00 0.00 29 1016.2
20220524165517 75 196 1.0 3.0 0.00 0.00 0.00 28 1016.2
20220524165020 74 0 0.0 4.0 0.00 0.00 0.00 28 1016.1
20220524164528 74 0 1.0 4.0 0.00 0.00 0.00 28 1016.2
20220524164020 75 217 1.0 3.0 0.00 0.00 0.00 27 1016.2
20220524163521 75 0 0.0 2.0 0.00 0.00 0.00 27 1016.2
20220524163030 75 0 0.0 2.0 0.00 0.00 0.00 29 1016.1
20220524162518 75 224 1.0 2.0 0.00 0.00 0.00 23 1016.2
20220524162017 74 0 0.0 2.0 0.00 0.00 0.00 28 1016.2
20220524161528 74 0 0.0 2.0 0.00 0.00 0.00 26 1016.2
20220524161020 74 0 0.0 2.0 0.00 0.00 0.00 26 1016.2
20220524160521 74 0 0.0 2.0 0.00 0.00 0.00 24 1016.3
20220524160037 73 0 0.0 2.0 0.00 0.00 0.00 26 1016.2
20220524155520 72 0 0.0 1.0 0.00 0.00 0.00 28 1016.2
20220524155022 72 0 0.0 1.0 0.00 0.00 0.00 26 1016.1
20220524154525 71 9 0.0 2.0 0.00 0.00 0.00 29 1016.2
20220524154021 70 0 0.0 2.0 0.00 0.00 0.00 28 1016.2
20220524153518 69 0 0.0 2.0 0.00 0.00 0.00 27 1016.2
20220524153026 68 294 0.0 2.0 0.00 0.00 0.00 29 1016.0
20220524152522 67 5 0.0 2.0 0.00 0.00 0.00 29 1016.0
20220524152024 66 0 0.0 2.0 0.00 0.00 0.00 29 1015.9
20220524151524 66 0 0.0 2.0 0.00 0.00 0.00 32 1016.0
20220524151020 66 50 0.0 2.0 0.00 0.00 0.00 28 1015.9
20220524150519 65 311 0.0 2.0 0.00 0.00 0.00 28 1015.9
20220524150031 65 0 0.0 3.0 0.00 0.00 0.00 31 1015.8
20220524145520 65 314 1.0 3.0 0.00 0.00 0.00 29 1015.8
20220524145017 64 345 1.0 4.0 0.00 0.00 0.00 28 1015.8
20220524144526 64 322 1.0 4.0 0.00 0.00 0.00 28 1015.7
20220524144020 63 327 1.0 3.0 0.00 0.00 0.00 29 1015.7
20220524143519 63 325 1.0 3.0 0.00 0.00 0.00 29 1015.6
20220524143028 63 352 1.0 3.0 0.00 0.00 0.00 29 1015.6
20220524142522 62 0 1.0 3.0 0.00 0.00 0.00 29 1015.5
20220524142018 62 329 1.0 3.0 0.00 0.00 0.00 30 1015.4
20220524141547 62 0 1.0 3.0 0.00 0.00 0.00 28 1015.4
20220524141019 62 9 0.0 3.0 0.00 0.00 0.00 30 1015.3
20220524140521 62 5 1.0 3.0 0.00 0.00 0.00 28 1015.2
20220524140027 62 345 0.0 3.0 0.00 0.00 0.00 31 1015.2
20220524135519 63 346 1.0 3.0 0.00 0.00 0.00 28 1015.1
20220524135022 63 352 1.0 3.0 0.00 0.00 0.00 29 1014.9
20220524134527 63 332 1.0 4.0 0.00 0.00 0.00 28 1014.9
20220524134019 63 5 1.0 4.0 0.00 0.00 0.00 27 1014.9
20220524133517 63 352 1.0 4.0 0.00 0.00 0.00 26 1015.0
20220524133023 64 5 2.0 4.0 0.00 0.00 0.00 28 1014.9
20220524132517 64 5 1.0 5.0 0.00 0.00 0.00 25 1014.9
20220524132018 64 352 1.0 5.0 0.00 0.00 0.00 25 1014.9
20220524131520 64 13 1.0 7.0 0.00 0.00 0.00 24 1014.8
20220524131020 64 349 2.0 7.0 0.00 0.00 0.00 24 1014.8
20220524130520 64 33 2.0 7.0 0.00 0.00 0.00 24 1014.7
20220524130028 64 26 2.0 5.0 0.00 0.00 0.00 24 1014.7
20220524125519 65 16 1.0 7.0 0.00 0.00 0.00 24 1014.7
20220524125018 64 13 2.0 7.0 0.00 0.00 0.00 23 1014.6
20220524124523 64 352 2.0 6.0 0.00 0.00 0.00 24 1014.5
20220524124020 65 350 2.0 4.0 0.00 0.00 0.00 23 1014.5
20220524123521 64 15 1.0 4.0 0.00 0.00 0.00 23 1014.3
20220524123029 64 303 1.0 4.0 0.00 0.00 0.00 23 1014.5
20220524122522 65 350 2.0 6.0 0.00 0.00 0.00 23 1014.5
20220524122017 65 322 2.0 7.0 0.00 0.00 0.00 23 1014.5
20220524121533 65 348 2.0 7.0 0.00 0.00 0.00 22 1014.5
20220524121024 65 348 2.0 5.0 0.00 0.00 0.00 23 1014.4
20220524120518 65 5 1.0 9.0 0.00 0.00 0.00 23 1014.4
20220524120023 65 82 2.0 9.0 0.00 0.00 0.00 23 1014.4
20220524115518 65 36 1.0 5.0 0.00 0.00 0.00 22 1014.5
20220524115020 65 350 1.0 7.0 0.00 0.00 0.00 22 1014.5
20220524114530 65 15 1.0 7.0 0.00 0.00 0.00 23 1014.5
20220524114018 65 346 2.0 9.0 0.00 0.00 0.00 23 1014.5
20220524113518 64 32 2.0 9.0 0.00 0.00 0.00 23 1014.5
20220524113026 64 260 1.0 7.0 0.00 0.00 0.00 23 1014.5
20220524112517 64 309 1.0 8.0 0.00 0.00 0.00 24 1014.5
20220524112019 64 249 1.0 8.0 0.00 0.00 0.00 23 1014.5
20220524111531 64 295 1.0 4.0 0.00 0.00 0.00 23 1014.6
20220524111020 64 286 1.0 4.0 0.00 0.00 0.00 24 1014.6
20220524110521 64 232 1.0 4.0 0.00 0.00 0.00 24 1014.6
20220524110021 64 0 0.0 4.0 0.00 0.00 0.00 24 1014.8
20220524105518 64 0 0.0 4.0 0.00 0.00 0.00 24 1014.7
20220524105017 63 100 1.0 3.0 0.00 0.00 0.00 24 1014.6
20220524104521 63 153 0.0 4.0 0.00 0.00 0.00 24 1014.7
20220524104017 63 0 0.0 4.0 0.00 0.00 0.00 25 1014.8
20220524103518 63 339 1.0 5.0 0.00 0.00 0.00 25 1014.8
20220524103025 63 0 0.0 5.0 0.00 0.00 0.00 25 1014.9
20220524102523 62 249 0.0 2.0 0.00 0.00 0.00 26 1014.9
20220524102018 62 0 0.0 2.0 0.00 0.00 0.00 27 1015.0
20220524101525 62 0 0.0 2.0 0.00 0.00 0.00 27 1015.1
20220524101024 62 0 0.0 3.0 0.00 0.00 0.00 27 1015.1
20220524100519 62 77 1.0 3.0 0.00 0.00 0.00 28 1015.1
20220524100023 61 101 0.0 2.0 0.00 0.00 0.00 29 1015.0
20220524095517 61 94 1.0 3.0 0.00 0.00 0.00 30 1015.0
20220524095017 60 101 1.0 3.0 0.00 0.00 0.00 30 1015.0
20220524094533 60 87 1.0 3.0 0.00 0.00 0.00 33 1015.1
20220524094021 59 0 0.0 2.0 0.00 0.00 0.00 34 1015.1
20220524093524 59 0 0.0 0.0 0.00 0.00 0.00 35 1015.0
20220524093034 58 0 0.0 0.0 0.00 0.00 0.00 38 1015.0
20220524092520 58 0 0.0 0.0 0.00 0.00 0.00 40 1015.0
20220524092023 58 0 0.0 0.0 0.00 0.00 0.00 41 1014.9
20220524091524 58 0 0.0 0.0 0.00 0.00 0.00 43 1014.9
20220524091017 58 0 0.0 0.0 0.00 0.00 0.00 44 1014.9
20220524090522 59 0 0.0 0.0 0.00 0.00 0.00 45 1014.9
20220524090031 60 0 0.0 0.0 0.00 0.00 0.00 44 1014.8
20220524085519 60 0 0.0 0.0 0.00 0.00 0.00 39 1014.7
20220524085020 60 0 0.0 0.0 0.00 0.00 0.00 35 1014.8
20220524084532 61 0 0.0 1.0 0.00 0.00 0.00 39 1014.8
20220524084020 61 0 0.0 5.0 0.00 0.00 0.00 35 1014.8
20220524083518 62 0 0.0 5.0 0.00 0.00 0.00 35 1014.9
20220524083022 62 281 0.0 5.0 0.00 0.00 0.00 36 1015.0
20220524082520 63 0 0.0 2.0 0.00 0.00 0.00 36 1014.9
20220524082017 63 0 0.0 4.0 0.00 0.00 0.00 34 1015.0
20220524081526 63 0 0.0 4.0 0.00 0.00 0.00 34 1015.1
20220524081019 64 0 0.0 3.0 0.00 0.00 0.00 33 1015.2
20220524080518 64 298 1.0 3.0 0.00 0.00 0.00 34 1015.2
20220524080024 63 0 1.0 3.0 0.00 0.00 0.00 34 1015.3
20220524075519 63 303 0.0 4.0 0.00 0.00 0.00 35 1015.4
20220524075022 63 0 0.0 7.0 0.00 0.00 0.00 38 1015.4
20220524074523 63 296 1.0 7.0 0.00 0.00 0.00 37 1015.4
20220524074017 62 304 2.0 7.0 0.00 0.00 0.00 39 1015.4
20220524073518 62 318 0.0 2.0 0.00 0.00 0.00 42 1015.4
20220524073023 61 0 0.0 1.0 0.00 0.00 0.00 45 1015.4
20220524072521 61 0 0.0 1.0 0.00 0.00 0.00 46 1015.4
20220524072018 61 0 0.0 0.0 0.00 0.00 0.00 46 1015.5
20220524071521 61 0 0.0 1.0 0.00 0.00 0.00 48 1015.5
20220524071020 61 0 0.0 1.0 0.00 0.00 0.00 48 1015.6
20220524070520 60 0 0.0 0.0 0.00 0.00 0.00 48 1015.6
20220524070033 60 0 0.0 0.0 0.00 0.00 0.00 49 1015.7
20220524065520 60 0 0.0 0.0 0.00 0.00 0.00 49 1015.7
20220524065019 60 0 0.0 0.0 0.00 0.00 0.00 49 1015.7
20220524064533 60 0 0.0 0.0 0.00 0.00 0.00 49 1015.8
20220524064017 61 0 0.0 0.0 0.00 0.00 0.00 48 1015.7
20220524063519 61 0 0.0 1.0 0.00 0.00 0.00 48 1015.8
20220524063019 61 0 0.0 1.0 0.00 0.00 0.00 48 1015.8
20220524062520 61 0 0.0 1.0 0.00 0.00 0.00 47 1015.7
20220524062018 62 0 0.0 2.0 0.00 0.00 0.00 46 1015.7
20220524061523 63 0 0.0 2.0 0.00 0.00 0.00 45 1015.8
20220524061026 63 0 0.0 2.0 0.00 0.00 0.00 45 1015.8
20220524060516 62 0 0.0 2.0 0.00 0.00 0.00 45 1015.9
20220524060026 62 352 0.0 2.0 0.00 0.00 0.00 45 1015.9
20220524055519 62 0 0.0 0.0 0.00 0.00 0.00 45 1016.0
20220524055019 62 0 0.0 0.0 0.00 0.00 0.00 45 1016.0
20220524054520 62 0 0.0 0.0 0.00 0.00 0.00 45 1016.0
20220524054020 61 0 0.0 0.0 0.00 0.00 0.00 44 1016.1
20220524053517 61 0 0.0 0.0 0.00 0.00 0.00 44 1016.2
20220524053020 61 0 0.0 0.0 0.00 0.00 0.00 45 1016.2
20220524052518 61 0 0.0 0.0 0.00 0.00 0.00 44 1016.2
20220524052017 61 0 0.0 0.0 0.00 0.00 0.00 45 1016.2
20220524051526 61 0 0.0 0.0 0.00 0.00 0.00 44 1016.4
20220524051020 61 0 0.0 0.0 0.00 0.00 0.00 44 1016.3
20220524050517 61 0 0.0 0.0 0.00 0.00 0.00 45 1016.5
20220524050028 62 0 0.0 0.0 0.00 0.00 0.00 44 1016.5
20220524045519 62 0 0.0 0.0 0.00 0.00 0.00 44 1016.3
20220524045017 62 0 0.0 0.0 0.00 0.00 0.00 43 1016.5
20220524044523 62 0 0.0 0.0 0.00 0.00 0.00 43 1016.5
20220524044018 62 0 0.0 0.0 0.00 0.00 0.00 44 1016.5
20220524043518 62 0 0.0 0.0 0.00 0.00 0.00 44 1016.5
20220524043021 62 0 0.0 0.0 0.00 0.00 0.00 44 1016.4
20220524042524 62 0 0.0 0.0 0.00 0.00 0.00 44 1016.4
20220524042016 62 0 0.0 0.0 0.00 0.00 0.00 44 1016.4
20220524041521 63 0 0.0 0.0 0.00 0.00 0.00 44 1016.4
20220524041021 63 0 0.0 0.0 0.00 0.00 0.00 44 1016.3
20220524040517 63 0 0.0 0.0 0.00 0.00 0.00 43 1016.3
20220524040024 63 0 0.0 0.0 0.00 0.00 0.00 43 1016.2
20220524035519 63 0 0.0 0.0 0.00 0.00 0.00 43 1016.2
20220524035023 63 0 0.0 0.0 0.00 0.00 0.00 43 1016.2
20220524034533 64 0 0.0 0.0 0.00 0.00 0.00 42 1016.2
20220524034022 64 0 0.0 0.0 0.00 0.00 0.00 42 1016.1
20220524033516 64 0 0.0 1.0 0.00 0.00 0.00 42 1016.2
20220524033023 65 0 0.0 1.0 0.00 0.00 0.00 43 1016.1
20220524032520 65 0 0.0 2.0 0.00 0.00 0.00 41 1016.2
20220524032019 65 0 0.0 2.0 0.00 0.00 0.00 42 1016.2
20220524031538 65 0 0.0 2.0 0.00 0.00 0.00 41 1016.1